sat.trackr.live / text

‹ back to catalog

GLOBALSTAR M077

NORAD 37191 · 2010-054D

PAYLOAD ACTIVE UNKNOWN

§ Identity

Operator
Country
GLOB
Launch date
2010-10-19
Launch site
TYMSC
Launch vehicle
Mass (kg)
RCS (m²)
4.79

Purposes: comms

External: N2YO · Heavens-Above · Gunter

§ Orbital elements

Epoch: 2026-09-12T04:24:09.679104Z

Period
123.34 min
Inclination
51.9982°
Eccentricity
0.0002496
Mean motion
11.67548066 rev/d
Perigee alt
1,827.5 km
Apogee alt
1,831.6 km
Semi-major
8,207.6 km
B*
2.4087e-4
RAAN
318.4890°
Arg perigee
340.7271°
Mean anomaly
53.2126°
Rev number
73,130

§ Raw data

GLOBALSTAR M0771 37191U 10054D   26255.18344536 -.00000065  00000+0  24087-3 0  99902 37191  51.9982 318.4890 0002496 340.7271  53.2126 11.67548066731302

JSON: /api/v1/satellites/37191 · /tle

For live sub-satellite position, see the globe view (requires WebGL).

§ Visibility from observer

Set your observer location to see the next 7 days of passes ≥ 10°. The values pass through the URL so the page stays shareable.

No JS? Fill the form by hand. The geolocation button needs JavaScript.